Weather History for Pascagoula, MS

Change the Weather History Date:

Monday, October 22, 2012

  Actual Average Record
Temperature  
Mean Temperature 64 °F -  
Max Temperature 80 °F 78 °F 89 °F (1963)
Min Temperature 48 °F 57 °F 32 °F (1989)
Degree Days  
Heating Degree Days 1    
Growing Degree Days 14 (Base 50)    
Moisture  
Dew Point 56 °F    
Average Humidity 83    
Maximum Humidity 100    
Minimum Humidity 43    
Precipitation  
Precipitation 0.00 in - - ()
Sea Level Pressure  
Sea Level Pressure 30.11 in    
Wind  
Wind Speed 2 mph (ESE)    
Max Wind Speed 9 mph    
Max Gust Speed 18 mph    
Visibility 6 miles    
Events Fog    
Averages and records for this station are not official NWS values.
T = Trace of Precipitation, MM = Missing Value Source: NWS Daily Summary

Daily Weather History Graph

Daily Weather History Graph

Search for Another Location

Airport:

Trip Planner

Search our weather history database for the weather conditions in past years. The results will help you decide how hot, cold, wet, or windy it might be!

Date:

Astronomy

Oct. 22, 2012 Rise Set
Actual Time 7:01 AM CDT 6:15 PM CDT
Civil Twilight 6:37 AM CDT 6:39 PM CDT
Nautical Twilight 6:08 AM CDT 7:07 PM CDT
Astronomical Twilight 5:41 AM CDT 7:35 PM CDT
Moon 1:57 PM CDT (10/22) 12:16 AM CDT (10/22)
Length of Visible Light 12h 02m
Length of Day
11h 13m
First Quarter, 56% of the Moon is Illuminated
Oct 22
First Quarter
Oct 29
Full
Nov 6
Last Quarter
Nov 13
New
Nov 20
First Quarter

Hourly Weather History & Observations

Time (CDT) Temp. Heat Index Dew Point Humidity Pressure Visibility Wind Dir Wind Speed Gust Speed Precip Events Conditions
12:53 AM 51.1 °F - 48.9 °F 92% 30.09 in 10.0 mi Calm Calm - N/A   Clear
1:53 AM 51.1 °F - 48.9 °F 92% 30.09 in 10.0 mi Calm Calm - N/A   Clear
2:53 AM 51.1 °F - 50.0 °F 96% 30.09 in 10.0 mi Calm Calm - N/A   Clear
3:53 AM 48.9 °F - 48.0 °F 97% 30.09 in 8.0 mi Calm Calm - N/A   Clear
4:53 AM 51.1 °F - 50.0 °F 96% 30.10 in 10.0 mi Calm Calm - N/A   Clear
5:53 AM 53.1 °F - 51.1 °F 93% 30.11 in 10.0 mi Calm Calm - N/A   Clear
6:53 AM 51.1 °F - 50.0 °F 96% 30.12 in 10.0 mi Calm Calm - N/A   Clear
8:53 AM 66.0 °F - 55.0 °F 68% 30.15 in 10.0 mi ENE 5.8 mph - N/A   Unknown
9:53 AM 73.9 °F - 57.9 °F 57% 30.14 in 10.0 mi ENE 5.8 mph - N/A   Clear
10:53 AM 78.1 °F - 57.9 °F 50% 30.15 in 10.0 mi NE 8.1 mph - N/A   Clear
11:53 AM 79.0 °F - 57.9 °F 48% 30.14 in 10.0 mi SE 8.1 mph 18.4 mph N/A   Clear
12:53 PM 80.1 °F 80.6 °F 57.9 °F 47% 30.12 in 10.0 mi South 8.1 mph - N/A   Clear
1:53 PM 80.1 °F 80.9 °F 60.1 °F 50% 30.09 in 10.0 mi South 6.9 mph - N/A   Clear
2:53 PM 80.1 °F 80.7 °F 59.0 °F 48% 30.07 in 10.0 mi East 8.1 mph - N/A   Clear
3:53 PM 80.1 °F 80.2 °F 55.9 °F 43% 30.07 in 10.0 mi SSE 8.1 mph - N/A   Clear
4:53 PM 77.0 °F - 57.0 °F 50% 30.07 in 10.0 mi SE 8.1 mph - N/A   Clear
5:53 PM 73.0 °F - 62.1 °F 68% 30.08 in 10.0 mi SE 9.2 mph - N/A   Clear
6:53 PM 66.0 °F - 61.0 °F 84% 30.09 in 10.0 mi Calm Calm - N/A   Clear
7:53 PM 63.0 °F - 60.1 °F 90% 30.10 in 10.0 mi Calm Calm - N/A   Clear
8:50 PM 60.8 °F - 57.2 °F 88% 30.12 in 0.5 mi Calm Calm - N/A Fog Fog
8:53 PM 60.1 °F - 59.0 °F 96% 30.12 in 0.8 mi Calm Calm - N/A   Clear
8:57 PM 60.8 °F - 59.0 °F 94% 30.12 in 3.0 mi Calm Calm - N/A   Clear
9:09 PM 57.2 °F - 57.2 °F 100% 30.12 in 1.5 mi Calm Calm - N/A   Clear
9:21 PM 60.8 °F - 57.2 °F 88% 30.11 in 3.0 mi Calm Calm - N/A   Clear
9:29 PM 57.2 °F - 57.2 °F 100% 30.11 in 1.8 mi Calm Calm - N/A   Clear
9:38 PM 59.0 °F - 57.2 °F 94% 30.11 in 3.0 mi Calm Calm - N/A   Clear
9:45 PM 57.2 °F - 55.4 °F 94% 30.11 in 1.5 mi Calm Calm - N/A   Clear
9:53 PM 57.0 °F - 55.9 °F 96% 30.11 in 0.8 mi Calm Calm - N/A   Clear
9:59 PM 55.4 °F - 55.4 °F 100% 30.11 in 2.0 mi Calm Calm - N/A   Clear
10:46 PM 55.4 °F - 55.4 °F 100% 30.11 in 2.0 mi Calm Calm - N/A   Clear
10:53 PM 55.0 °F - 55.0 °F 100% 30.11 in 6.0 mi Calm Calm - N/A   Clear
11:03 PM 57.2 °F - 55.4 °F 94% 30.10 in 1.8 mi Calm Calm - N/A   Clear
11:20 PM 53.6 °F - 53.6 °F 100% 30.10 in 2.5 mi Calm Calm - N/A   Clear
11:41 PM 53.6 °F - 53.6 °F 100% 30.10 in 1.0 mi Calm Calm - N/A   Clear
11:53 PM 54.0 °F - 53.1 °F 97% 30.10 in 5.0 mi Calm Calm - N/A   Clear